LogoCoinalyze
    Ad-Free Version 主页 市场 资金费率
    期货数据
    • 汇总数据 (币种)
    • 单币图表
    • 全局图表
    提醒
    TA
    Bitcoin Ethereum BNB Ripple Tron ZCash Dogecoin Monero UNUS SED LEO Chainlink Cardano Stellar Lumens Bitcoin Cash Litecoin Hedera Cronos Polkadot Ethereum Classic Algorand Quant Cosmos VeChain Dash Bitcoin SV BitTorrent Terra Decred Tezos Iota The Graph THETA Decentraland NEO Chiliz MultiversX Golem Basic Attention Token Horizen Qtum 0x DigiByte Beam RIF Token FTX Token Holo FUNToken Zilliqa Ontology Nano aelf Enjin Coin Ravencoin Mask Network Siacoin Verge Status WINk Waves IoTeX iExec RLC Power Ledger Steem Kyber Network Crystal Lisk Ark Ardor WOO Network IOST WAX Icon Storj Loopring Wanchain Bitcoin Diamond AdEx Bitcoin Gold Augur OmiseGO NEM MonaCoin BitShares Ren Komodo V Systems Nuls Mithril SOLVE Maker EOS Aion Nebulas HedgeTrade Bread Fetch.ai TomoChain Polygon Fantom Waltonchain GXChain Bytom Metaverse ETP MaidSafeCoin QASH
    排序方式:
    更多
    • API
    • K线形态
    • 捐赠
    • 联系我们
    • 网站地图
    • 隐私政策
    • 免责声明
    • Theme:
    简体中文
    • English
    • Français
    • Русский
    • Deutsch
    • Türkçe
    • Nederlands
    • Português (BR)
    • Español
    • 한국어
    • 日本語
     
    登录 / 注册
    Markets/ Pepe/ PEPE 至 USDC/ PEPEUSDC Binance
    交易
    WL
    聊天
    统计
    新闻
    ⦷
    AAA
    0.00000338 93.00000000 15:31:50
    0.00000338 340100.00000000 15:31:49
    0.00000337 1570049.00000000 15:30:54
    0.00000337 8876572.00000000 15:29:51
    0.00000338 4437869.00000000 15:28:30
    0.00000338 259033892.00000000 15:28:16
    0.00000338 1019444.00000000 15:28:14
    0.00000338 70158000.00000000 15:27:56
    0.00000337 2798759.00000000 15:26:52
    0.00000337 3363009.00000000 15:26:01
    0.00000337 49787422.00000000 15:26:00
    0.00000338 259033892.00000000 15:23:32
    0.00000338 1017174.00000000 15:23:13
    0.00000337 1084272.00000000 15:22:52
    0.00000338 340193.00000000 15:20:57
    0.00000338 1017174.00000000 15:20:33
    0.00000338 349528200.00000000 15:20:33
    0.00000338 1017174.00000000 15:20:28
    0.00000338 371779407.00000000 15:20:28
    0.00000339 324328206.00000000 15:20:01
    0.00000339 26213793.00000000 15:19:52
    0.00000339 26213793.00000000 15:19:39
    0.00000339 25200000.00000000 15:19:24
    0.00000339 5011741.00000000 15:19:19
    0.00000339 31120053.00000000 15:19:19
    0.00000338 837156.00000000 15:18:53
    0.00000338 4435208.00000000 15:18:39
    0.00000338 1020579.00000000 15:18:39
    0.00000338 83599999.00000000 15:18:39
    0.00000338 5946746.00000000 15:18:25
    0.00000338 18100000.00000000 15:18:19
    0.00000337 2030156.00000000 15:17:19
    0.00000337 5000027.00000000 15:16:19
    0.00000337 15065042.00000000 15:15:05
    0.00000337 1360606.00000000 15:14:53
    0.00000337 714064.00000000 15:14:53
    0.00000336 65960922.00000000 15:14:39
    0.00000337 3510785.00000000 15:14:00
    0.00000337 32513200.00000000 15:13:48
    0.00000337 109687500.00000000 15:13:47
    0.00000337 679519.00000000 15:13:45
    0.00000337 141173580.00000000 15:13:31
    0.00000337 2916261.00000000 15:13:13
    0.00000337 1745795.00000000 15:13:10
    0.00000336 863359410.00000000 15:13:09
    0.00000337 296736.00000000 15:12:59
    0.00000337 234831017.00000000 15:12:59
    0.00000337 296736.00000000 15:12:59
    0.00000337 296736.00000000 15:12:59
    0.00000337 296736.00000000 15:12:59
    0.00000337 296736.00000000 15:12:59
    0.00000337 542663323.00000000 15:12:57
    0.00000338 500000.00000000 15:12:25
    0.00000338 22401944.00000000 15:11:53
    0.00000338 408196604.00000000 15:11:17
    0.00000337 2661241.00000000 15:10:57
    0.00000338 1062910.00000000 15:10:57
    0.00000338 2458575.00000000 15:10:15
    0.00000338 29578700.00000000 15:10:02
    0.00000338 15000000.00000000 15:09:31
    0.00000339 373720.00000000 15:09:28
    0.00000338 87235455.00000000 15:09:09
    0.00000338 2002282.00000000 15:08:49
    0.00000339 854842.00000000 15:08:07
    0.00000339 134693500.00000000 15:07:49
    0.00000339 240518633.00000000 15:07:43
    0.00000339 3033657.00000000 15:07:23
    0.00000339 413415.00000000 15:07:22
    0.00000339 3542932.00000000 15:07:14
    0.00000339 1594305.00000000 15:06:52
    0.00000340 25536812.00000000 15:06:43
    0.00000340 3013217.00000000 15:06:27
    0.00000340 3806985.00000000 15:06:05
    0.00000340 49038479.00000000 15:06:01
    0.00000340 31.00000000 15:05:47
    0.00000340 337900.00000000 15:05:47
    0.00000340 25200000.00000000 15:05:44
    0.00000340 25875862.00000000 15:05:44
    0.00000339 7281954.00000000 15:05:41
    0.00000339 13697833.00000000 15:05:13
    0.00000340 127791500.00000000 15:04:36
    0.00000340 16166765.00000000 15:03:27
    0.00000340 124782369.00000000 15:03:27
    0.00000340 187700201.00000000 15:03:27
    0.00000339 1973337.00000000 15:02:53
    0.00000339 1013793.00000000 15:02:00
    0.00000338 6930038.00000000 15:01:51
    0.00000339 233494834.00000000 15:00:47
    0.00000339 1013793.00000000 15:00:39
    0.00000339 1013793.00000000 15:00:09
    0.00000339 962824940.00000000 15:00:09
    0.00000339 3263106.00000000 14:58:53
    0.00000340 953967.00000000 14:58:53
    0.00000339 5345808.00000000 14:58:41
    0.00000340 153888070.00000000 14:57:41
    0.00000340 33007900.00000000 14:57:32
    0.00000340 59802381.00000000 14:56:54
    0.00000340 73643687.00000000 14:56:22
    0.00000340 50520654.00000000 14:55:30
    0.00000340 1582461.00000000 14:55:20
    注销
    AAA
    帮助
    🙂 🤣 😎 🤗 😛 😉 😜 🤑 🤔 😑 😴 😕 🙃 😲 😇 🙁 😢 😬 😟 😠 🕺 🏃 💪 ✌ 👌 👍 👎 👏 👋 🤝 🍺 🍻 🐋 🐟 🦈 🗽 🚄 ✈ 🛑 🚀 🏦 🌚 ⭐ 🌞 ⚡ 🏆 💰 💲 🔨 ❓ ❗ 💯 🔶 🏁
    ☺
    登录 或 注册 并聊天
    24 小时
    变动
    -3.43%
    成交量
    405,206,929,891
    最高
    0.00000353
    最低
    0.00000336
    7 天
    变动
    -11.52%
    成交量
    3,378,702,472,766
    最高
    0.00000401
    最低
    0.00000336
    30 天
    变动
    +16.55%
    成交量
    18,441,305,175,153
    最高
    0.00000455
    最低
    0.00000252
    Pepe price rallies 25% as whale demand and futures interest surge
    Key takeaways Pepe has gained 25% this week, including a combined 22% advance over the previous two days. Seven whale transactions worth more than $1 million each occurred Thursday, the highest...
    coinjournal.net
    Aug 21, 2026 08:41
    PEPE Supply on Exchanges Just Took a Massive Hit – What’s Next?
    A drop in PEPE exchange balances has added to bullish expectations despite muted trader interest.
    cryptopotato.com
    Aug 6, 2026 20:02
    PEPE Exchange Outflows Hit Nearly 2-Year High as Whales Accumulate
    Pepe (PEPE) recorded its largest single-day exchange outflow since November 2024, with 4.54 trillion tokens leaving trading platforms, signaling that holders are moving supply away from immediate...
    beincrypto.com
    Aug 6, 2026 04:57
    Meme Coin Based on White House Shooter Conspiracy Rallies 320%
    $HENRY surged 300% after a 2023 Pepe tweet appeared to name the White House shooter, fueling a viral time-travel meme. The post Meme Coin Based on White House Shooter Conspiracy Rallies 320%...
    beincrypto.com
    Apr 27, 2026 16:11
    PEPE surges 4% as market sentiment improves, eyes Key resistance breakout
    Key takeaways Pepe extends gains on Wednesday, stretching its rally from the 50-day EMA. Derivatives data show heightened retail activity as risk-on sentiment returns to the market. Pepe (PEPE) is...
    coinjournal.net
    Apr 22, 2026 11:44
    Why The PEPE Price Could Stage A 55X Rally To Reach New $0.0001 ATH
    The PEPE price has now started to edge back into bullish conversations after the recent inflows into the crypto market. The last time PEPE’s weekly chart printed the kind of structure now...
    newsbtc.com
    Apr 21, 2026 15:30
    Pepe (PEPE) surges 9%, drawing interest from whales
    Key takeaways PEPE is up 9% in the last 24 hours, making it one of the best performers among the top 50 cryptocurrencies by market cap. The rally comes amid renewed interest from whales and retail...
    coinjournal.net
    Apr 16, 2026 07:40
    Murad Says SPX6900 (SPX) Is Primed for a Rally — Is He Right This Time?
    Crypto influencer Murad Mahmudov claims SPX6900 (SPX) is stabilizing at the same market cap level where Dogecoin (DOGE) and Pepe (PEPE) consolidated before their explosive rallies. The...
    beincrypto.com
    Apr 5, 2026 21:36
    The Shiba Inu Of This Cycle: Analyst Shares Why It Is Better To Buy PEPE Now
    In the bull market cycle of 2021-2022, the Shiba Inu meme coin made waves in a way that changed the face of meme coins forever. This came after Dogecoin’s initial 36,000% rally, and Shiba Inu...
    newsbtc.com
    Apr 4, 2026 07:30
    PEPE Explodes by 18% Amid Altcoin Rally, BTC Tapped $74K: Market Watch
    The frog-themed meme coin is today's biggest gainer, followed by TAO, DOT, and BONK.
    cryptopotato.com
    Mar 16, 2026 10:56
    Should PEPE traders brace for volatility as short squeeze potential builds?
    The memecoin market has seen its collective market capitalization drop by 48% over the past year, and 6.9% over the past month, according to CoinMarketCap. According to Glassnode, the memecoin...
    ambcrypto.com
    Mar 7, 2026 18:00
    只需在聊天中输入命令即可。将 nick1 替换为实际的昵称。
    • /ignore nick1 忽略聊天用户
    • /unignore nick1 取消忽略聊天用户
    • /ignorelist 显示已忽略的聊天用户